"startDT [UTC]","vpos","CH4 [ppm]","stdev(CH4) [ppm]","CO2 [ppm]","stdev(CO2) [ppm]","H2O_reported [%]","stdev(H2O_reported)","CavityPressure [torr]","CavityTemp [C]","OutletValve","CH4_dry [ppm]","CO2_dry [ppm]","DasTemp [C]","EtalonTemp [C]","WarmBoxTemp [C]","MPVPosition","T_ECpre [C]","T_EC1 [C]","T_EC2 [C]","p_inlet [hPa]","p_in [hPa]","p_out [hPa]","T_inlet [C]","RH_inlet [%]","dwpt_inlet [C]","T_vent [C]","RH_vent [%]","dwpt_vent [C]","flow_vent [l min-1]","flow_inlet [l min-1]","dwpt_sample [C]","T_room [C]"
2013-09-30 00:00:00,0.0,1.88116,0.00036,388.561,0.043,0.4730,0.0009,139.996,45.000,31806.30700,1.89005,390.807,32.583,45.056,45.000,0.00,0.12,-272.56,-272.63,-23,578,-6,23.4,12.5,-7.1,23.3,12.9,-6.8,5.73,2.53,-0.7,26.3
2013-09-30 00:01:00,0.0,1.88060,0.00059,388.511,0.048,0.4728,0.0021,140.001,45.000,31805.97081,1.88958,390.749,32.582,45.056,45.000,0.00,0.12,-272.57,-272.63,-22,578,-6,23.3,12.6,-7.1,23.3,12.9,-6.8,5.73,2.58,-0.7,26.3
2013-09-30 00:02:00,0.0,1.88060,0.00056,388.576,0.042,0.4738,0.0012,140.005,45.000,31807.62337,1.88942,390.820,32.587,45.057,45.000,0.00,0.12,-272.57,-272.63,-23,579,-6,23.4,12.6,-7.1,23.3,12.9,-6.7,5.73,2.60,-0.7,26.4
2013-09-30 00:03:00,0.0,1.88101,0.00042,388.591,0.030,0.4754,0.0010,140.001,45.000,31804.28908,1.88994,390.846,32.578,45.057,45.000,0.00,0.12,-272.57,-272.63,-23,579,-6,23.4,12.6,-7.0,23.3,13.0,-6.7,5.73,2.56,-0.7,26.4
2013-09-30 00:04:00,0.0,1.88009,0.00031,388.608,0.033,0.4757,0.0015,140.000,45.000,31805.01587,1.88911,390.857,32.574,45.057,45.000,0.00,0.12,-272.57,-272.63,-23,578,-6,23.4,12.6,-7.0,23.3,13.0,-6.7,5.73,2.51,-0.7,26.3
2013-09-30 00:05:00,0.0,1.87975,0.00035,388.641,0.027,0.4762,0.0016,140.005,45.000,31807.46737,1.88870,390.897,32.572,45.057,45.000,0.00,0.12,-272.57,-272.64,-22,578,-6,23.4,12.6,-7.0,23.3,13.0,-6.7,5.73,2.50,-0.7,26.2
2013-09-30 00:06:00,0.0,1.88019,0.00030,388.670,0.050,0.4782,0.0031,140.001,45.000,31805.90914,1.88905,390.938,32.598,45.057,45.000,0.00,0.12,-272.56,-272.63,-23,578,-6,23.4,12.6,-7.0,23.3,13.0,-6.7,5.73,2.53,-0.7,26.4
2013-09-30 00:07:00,0.0,1.88034,0.00046,388.664,0.027,0.4764,0.0016,140.005,45.000,31805.77901,1.88937,390.920,32.618,45.056,45.000,0.00,0.12,-272.57,-272.63,-23,579,-6,23.4,12.7,-7.0,23.3,13.0,-6.7,5.73,2.57,-0.7,26.3
2013-09-30 00:08:00,0.0,1.87975,0.00018,388.692,0.035,0.4760,0.0032,140.004,45.000,31806.37888,1.88872,390.948,32.620,45.056,45.000,0.00,0.12,-272.57,-272.64,-23,578,-6,23.4,12.7,-7.0,23.3,13.0,-6.7,5.73,2.59,-0.7,26.5
2013-09-30 00:09:00,0.0,1.87946,0.00024,388.629,0.026,0.4747,0.0022,140.001,45.000,31807.07634,1.88835,390.884,32.625,45.056,45.000,0.00,0.12,-272.57,-272.63,-23,578,-6,23.4,12.6,-7.0,23.3,13.0,-6.7,5.73,2.56,-0.7,26.6
2013-09-30 00:10:00,0.0,1.87990,0.00026,388.730,0.042,0.4734,0.0030,140.003,45.000,31809.49794,1.88881,390.962,32.625,45.056,45.000,0.00,0.12,-272.57,-272.63,-22,578,-6,23.4,12.6,-7.0,23.3,13.0,-6.7,5.73,2.53,-0.7,26.6
2013-09-30 00:11:00,0.0,1.87969,0.00040,388.672,0.074,0.4799,0.0018,139.993,45.000,31805.95491,1.88865,390.959,32.625,45.056,45.000,0.00,0.12,-272.57,-272.63,-23,579,-6,23.4,12.7,-6.9,23.3,13.0,-6.6,5.73,2.50,-0.7,26.5
2013-09-30 00:12:00,0.0,1.87997,0.00022,388.621,0.055,0.4805,0.0011,140.001,45.000,31807.81783,1.88897,390.895,32.625,45.056,45.000,0.00,0.12,-272.57,-272.63,-23,578,-6,23.4,12.7,-6.9,23.3,13.1,-6.6,5.73,2.51,-0.7,26.4
2013-09-30 00:13:00,0.0,1.88042,0.00020,388.642,0.074,0.4789,0.0021,139.999,45.000,31808.55525,1.88937,390.920,32.625,45.056,45.000,0.00,0.12,-272.56,-272.63,-23,578,-6,23.4,12.8,-6.9,23.3,13.1,-6.6,5.73,2.55,-0.7,26.5
2013-09-30 00:14:00,0.0,1.88025,0.00021,388.624,0.059,0.4810,0.0011,140.005,45.000,31811.32540,1.88929,390.892,32.625,45.056,45.000,0.00,0.12,-272.57,-272.63,-23,578,-6,23.4,12.8,-6.8,23.3,13.1,-6.5,5.73,2.59,-0.7,26.5
2013-09-30 00:15:00,0.0,1.88049,0.00051,388.752,0.017,0.4789,0.0015,140.003,45.000,31809.85558,1.88936,391.022,32.625,45.056,45.000,0.00,0.12,-272.57,-272.63,-22,578,-6,23.4,12.8,-6.9,23.3,13.1,-6.6,5.73,2.58,-0.7,26.4
2013-09-30 00:16:00,0.0,1.88050,0.00046,388.645,0.038,0.4836,0.0018,140.002,45.000,31807.76487,1.88968,390.946,32.625,45.056,45.000,0.00,0.12,-272.57,-272.63,-23,579,-6,23.4,12.8,-6.8,23.3,13.1,-6.5,5.73,2.55,-0.7,26.5
2013-09-30 00:17:00,0.0,1.88066,0.00030,388.620,0.041,0.4799,0.0028,140.001,45.000,31810.21444,1.88963,390.900,32.619,45.056,45.000,0.00,0.12,-272.57,-272.63,-23,578,-6,23.4,12.8,-6.9,23.3,13.1,-6.5,5.73,2.50,-0.7,26.5
2013-09-30 00:18:00,0.0,1.88077,0.00037,388.712,0.030,0.4798,0.0004,140.003,45.000,31811.38229,1.88976,390.977,32.623,45.056,45.000,0.00,0.12,-272.57,-272.64,-23,578,-6,23.4,12.7,-6.9,23.3,13.1,-6.6,5.73,2.50,-0.7,26.4
2013-09-30 00:19:00,0.0,1.88080,0.00028,388.759,0.037,0.4814,0.0019,140.001,45.000,31812.28094,1.88983,391.037,32.611,45.056,45.000,0.00,0.12,-272.57,-272.63,-22,578,-6,23.4,12.8,-6.8,23.3,13.1,-6.5,5.73,2.54,-0.7,26.3
2013-09-30 00:20:00,0.0,1.88110,0.00015,388.752,0.026,0.4843,0.0014,140.007,45.000,31813.04913,1.89015,391.051,32.604,45.057,45.000,0.00,0.12,-272.57,-272.63,-23,578,-6,23.4,12.9,-6.8,23.3,13.2,-6.5,5.73,2.59,-0.7,26.4
2013-09-30 00:21:00,0.0,1.88133,0.00045,388.742,0.025,0.4849,0.0017,139.999,45.000,31813.42427,1.89038,391.044,32.613,45.057,45.000,0.00,0.12,-272.57,-272.63,-23,578,-6,23.4,12.9,-6.8,23.3,13.2,-6.4,5.73,2.59,-0.7,26.3
2013-09-30 00:22:00,0.0,1.88182,0.00035,388.802,0.043,0.4844,0.0016,139.999,45.000,31809.92909,1.89088,391.098,32.614,45.057,45.000,0.00,0.12,-272.57,-272.64,-23,578,-6,23.4,12.9,-6.8,23.3,13.2,-6.5,5.73,2.55,-0.7,26.5
2013-09-30 00:23:00,0.0,1.88176,0.00029,388.763,0.027,0.4846,0.0016,139.998,45.000,31809.29019,1.89089,391.061,32.607,45.056,45.000,0.00,0.12,-272.56,-272.63,-22,578,-6,23.4,12.9,-6.7,23.3,13.2,-6.4,5.73,2.51,-0.7,26.7
2013-09-30 00:24:00,0.0,1.88206,0.00026,388.798,0.038,0.4858,0.0017,140.005,45.000,31808.98686,1.89115,391.100,32.599,45.057,45.000,0.00,0.12,-272.57,-272.63,-22,578,-6,23.3,12.9,-6.7,23.3,13.3,-6.4,5.73,2.50,-0.7,26.5
2013-09-30 00:25:00,0.0,1.88230,0.00031,388.769,0.034,0.4867,0.0010,140.002,45.000,31805.46841,1.89138,391.076,32.600,45.056,45.000,0.00,0.12,-272.57,-272.63,-23,579,-6,23.3,12.9,-6.7,23.3,13.3,-6.4,5.73,2.55,-0.7,26.6
2013-09-30 00:26:00,0.0,1.88220,0.00033,388.809,0.039,0.4851,0.0009,139.999,45.000,31804.28182,1.89141,391.110,32.598,45.057,45.000,0.00,0.12,-272.57,-272.63,-23,578,-6,23.4,12.9,-6.7,23.3,13.2,-6.4,5.73,2.59,-0.7,26.5
2013-09-30 00:27:00,0.0,1.88249,0.00018,388.808,0.019,0.4843,0.0022,140.002,45.000,31806.30422,1.89151,391.106,32.578,45.056,45.000,0.00,0.12,-272.57,-272.63,-23,578,-6,23.3,12.9,-6.8,23.3,13.2,-6.5,5.73,2.58,-0.7,26.5
2013-09-30 00:28:00,0.0,1.88264,0.00034,388.828,0.014,0.4834,0.0012,140.001,45.000,31807.14287,1.89167,391.121,32.568,45.056,45.000,0.00,0.12,-272.57,-272.64,-22,578,-6,23.4,12.9,-6.7,23.3,13.2,-6.4,5.73,2.54,-0.7,26.5
2013-09-30 00:29:00,0.0,1.88338,0.00026,388.871,0.031,0.4850,0.0021,140.005,45.000,31806.04298,1.89242,391.166,32.564,45.056,45.000,0.00,0.12,-272.57,-272.63,-23,579,-6,23.4,12.9,-6.7,23.3,13.2,-6.4,5.73,2.50,-0.7,26.5
2013-09-30 00:30:00,0.0,1.88341,0.00043,388.915,0.028,0.4861,0.0017,140.001,45.000,31803.14305,1.89259,391.224,32.613,45.056,45.000,0.00,0.12,-272.56,-272.63,-23,578,-6,23.4,12.9,-6.7,23.3,13.3,-6.4,5.73,2.51,-0.7,26.5
2013-09-30 00:31:00,0.0,1.88329,0.00043,388.934,0.032,0.4882,0.0014,139.998,45.000,31803.89977,1.89246,391.248,32.621,45.056,45.000,0.00,0.12,-272.57,-272.63,-23,578,-6,23.4,13.0,-6.7,23.3,13.3,-6.4,5.73,2.55,-0.7,26.5
2013-09-30 00:32:00,0.0,1.88384,0.00030,388.917,0.041,0.4880,0.0013,140.003,45.000,31807.69203,1.89294,391.228,32.625,45.056,45.000,0.00,0.12,-272.57,-272.63,-22,578,-6,23.3,13.0,-6.7,23.3,13.3,-6.4,5.73,2.59,-0.7,26.5
2013-09-30 00:33:00,0.0,1.88366,0.00026,388.936,0.025,0.4888,0.0016,140.001,45.000,31805.28661,1.89293,391.258,32.625,45.056,45.000,0.00,0.12,-272.57,-272.63,-22,578,-6,23.4,13.0,-6.6,23.3,13.3,-6.3,5.73,2.58,-0.7,26.6
2013-09-30 00:34:00,0.0,1.88388,0.00023,388.904,0.043,0.4905,0.0016,140.008,45.000,31808.58157,1.89307,391.232,32.625,45.056,45.000,0.00,0.12,-272.57,-272.64,-23,579,-6,23.4,13.0,-6.6,23.3,13.3,-6.3,5.73,2.55,-0.7,26.5
2013-09-30 00:35:00,0.0,1.88366,0.00035,388.984,0.027,0.4897,0.0020,139.998,45.000,31807.20071,1.89290,391.307,32.625,45.056,45.000,0.00,0.12,-272.57,-272.64,-23,578,-6,23.4,13.0,-6.6,23.3,13.3,-6.3,5.73,2.51,-0.7,26.5
2013-09-30 00:36:00,0.0,1.88401,0.00043,389.027,0.033,0.4916,0.0017,140.003,45.000,31807.82503,1.89313,391.353,32.625,45.056,45.000,0.00,0.12,-272.57,-272.63,-23,578,-6,23.4,13.1,-6.6,23.4,13.4,-6.2,5.73,2.50,-0.7,26.5
2013-09-30 00:37:00,0.0,1.88396,0.00034,389.005,0.034,0.4919,0.0010,140.003,45.000,31809.41774,1.89328,391.347,32.625,45.056,45.000,0.00,0.12,-272.57,-272.63,-22,578,-6,23.4,13.1,-6.6,23.3,13.4,-6.3,5.73,2.53,-0.7,26.6
2013-09-30 00:38:00,0.0,1.88370,0.00022,389.032,0.023,0.4915,0.0009,140.003,45.000,31810.43859,1.89300,391.360,32.626,45.056,45.000,0.00,0.12,-272.57,-272.63,-23,578,-6,23.4,13.0,-6.6,23.3,13.4,-6.3,5.73,2.56,-0.7,26.5
2013-09-30 00:39:00,0.0,1.88438,0.00017,389.017,0.016,0.4912,0.0014,140.003,45.000,31809.21491,1.89348,391.349,32.645,45.056,45.000,0.00,0.12,-272.57,-272.64,-23,579,-6,23.4,13.0,-6.6,23.3,13.4,-6.3,5.73,2.58,-0.7,26.6
2013-09-30 00:40:00,0.0,1.88431,0.00047,389.074,0.035,0.4918,0.0014,139.999,45.000,31808.73918,1.89364,391.409,32.648,45.056,45.000,0.00,0.12,-272.56,-272.63,-23,578,-6,23.4,13.1,-6.5,23.3,13.4,-6.3,5.73,2.58,-0.7,26.6
2013-09-30 00:41:00,0.0,1.88504,0.00050,389.077,0.031,0.4917,0.0008,139.999,45.000,31807.77234,1.89413,391.410,32.666,45.056,45.000,0.00,0.12,-272.57,-272.63,-23,578,-6,23.4,13.1,-6.5,23.4,13.4,-6.2,5.73,2.55,-0.7,26.7
2013-09-30 00:42:00,0.0,1.88543,0.00050,389.102,0.044,0.4911,0.0020,140.001,45.000,31811.14151,1.89458,391.432,32.651,45.056,45.000,0.00,0.12,-272.57,-272.63,-22,578,-6,23.4,13.1,-6.5,23.3,13.4,-6.2,5.73,2.51,-0.7,26.8
2013-09-30 00:43:00,0.0,1.88573,0.00025,389.134,0.043,0.4947,0.0013,140.001,45.000,31811.71460,1.89508,391.476,32.635,45.056,45.000,0.00,0.12,-272.57,-272.63,-22,578,-6,23.4,13.1,-6.5,23.4,13.5,-6.2,5.73,2.51,-0.7,26.7
2013-09-30 00:44:00,0.0,1.88597,0.00015,389.151,0.020,0.4955,0.0008,139.998,45.000,31812.26633,1.89529,391.509,32.645,45.056,45.000,0.00,0.12,-272.57,-272.63,-23,579,-6,23.4,13.2,-6.4,23.4,13.5,-6.1,5.73,2.53,-0.7,26.4
2013-09-30 00:45:00,0.0,1.88606,0.00036,389.148,0.032,0.4987,0.0010,139.998,45.000,31812.10690,1.89542,391.514,32.627,45.057,45.000,0.00,0.12,-272.57,-272.63,-23,578,-6,23.4,13.2,-6.4,23.3,13.6,-6.1,5.73,2.57,-0.7,26.5
2013-09-30 00:46:00,0.0,1.88675,0.00055,389.178,0.024,0.4990,0.0019,140.000,45.000,31809.66756,1.89599,391.551,32.632,45.057,45.000,0.00,0.12,-272.57,-272.63,-23,578,-6,23.4,13.3,-6.3,23.3,13.6,-6.0,5.73,2.59,-0.7,26.4
2013-09-30 00:47:00,0.0,1.88690,0.00053,389.168,0.020,0.4988,0.0021,140.000,45.000,31811.82487,1.89638,391.536,32.631,45.057,45.000,0.00,0.12,-272.56,-272.63,-22,578,-6,23.4,13.2,-6.4,23.3,13.6,-6.1,5.73,2.56,-0.7,26.4
2013-09-30 00:48:00,0.0,1.88723,0.00021,389.250,0.032,0.4968,0.0022,140.001,45.000,31811.21562,1.89660,391.605,32.621,45.057,45.000,0.00,0.12,-272.57,-272.63,-23,579,-6,23.4,13.2,-6.4,23.3,13.5,-6.1,5.73,2.51,-0.7,26.5
2013-09-30 00:49:00,0.0,1.88727,0.00035,389.289,0.033,0.4941,0.0008,140.003,45.000,31810.31420,1.89655,391.636,32.622,45.057,45.000,0.00,0.12,-272.57,-272.64,-23,579,-6,23.4,13.1,-6.5,23.3,13.4,-6.2,5.73,2.49,-0.7,26.5
2013-09-30 00:50:00,0.0,1.88793,0.00030,389.340,0.032,0.4943,0.0015,140.000,45.000,31807.47664,1.89718,391.686,32.597,45.056,45.000,0.00,0.12,-272.56,-272.63,-23,578,-6,23.4,13.1,-6.5,23.3,13.4,-6.2,5.73,2.54,-0.7,26.4
2013-09-30 00:51:00,0.0,1.88831,0.00060,389.403,0.035,0.4937,0.0010,139.996,45.000,31807.56174,1.89764,391.744,32.584,45.056,45.000,0.00,0.12,-272.57,-272.63,-22,578,-6,23.4,13.1,-6.5,23.3,13.5,-6.2,5.73,2.59,-0.7,26.3
2013-09-30 00:52:00,0.0,1.88854,0.00027,389.419,0.024,0.4957,0.0015,140.001,45.000,31809.59957,1.89775,391.776,32.570,45.057,45.000,0.00,0.12,-272.57,-272.64,-23,579,-6,23.4,13.2,-6.4,23.3,13.5,-6.1,5.73,2.59,-0.7,26.3
2013-09-30 00:53:00,0.0,1.88952,0.00045,389.462,0.055,0.4957,0.0010,140.003,45.000,31808.17719,1.89879,391.817,32.564,45.057,45.000,0.00,0.12,-272.57,-272.63,-23,579,-6,23.4,13.2,-6.4,23.3,13.5,-6.1,5.73,2.55,-0.7,26.3
2013-09-30 00:54:00,0.0,1.88957,0.00015,389.502,0.026,0.4979,0.0033,140.009,45.000,31809.65206,1.89897,391.866,32.581,45.057,45.000,0.00,0.12,-272.57,-272.63,-23,578,-6,23.3,13.2,-6.4,23.3,13.5,-6.1,5.73,2.50,-0.7,26.5
2013-09-30 00:55:00,0.0,1.88982,0.00026,389.458,0.019,0.4997,0.0010,140.001,45.000,31806.50673,1.89924,391.838,32.591,45.056,45.000,0.00,0.12,-272.57,-272.63,-22,578,-6,23.3,13.3,-6.4,23.3,13.6,-6.1,5.73,2.51,-0.7,26.4
2013-09-30 00:56:00,0.0,1.89040,0.00044,389.445,0.048,0.5011,0.0021,140.001,45.000,31805.29543,1.89983,391.821,32.604,45.056,45.000,0.00,0.12,-272.57,-272.64,-22,578,-6,23.4,13.3,-6.3,23.3,13.6,-6.1,5.73,2.55,-0.7,26.4
2013-09-30 00:57:00,0.0,1.89037,0.00034,389.495,0.031,0.4989,0.0019,139.999,45.000,31803.56721,1.89978,391.869,32.594,45.056,45.000,0.00,0.12,-272.57,-272.63,-23,579,-6,23.4,13.3,-6.4,23.3,13.6,-6.1,5.73,2.59,-0.7,26.5
2013-09-30 00:58:00,0.0,1.88982,0.00042,389.473,0.045,0.4995,0.0023,140.005,45.000,31808.45153,1.89924,391.852,32.588,45.056,45.000,0.00,0.12,-272.57,-272.64,-23,578,-6,23.4,13.3,-6.4,23.3,13.6,-6.1,5.73,2.59,-0.7,26.5
2013-09-30 00:59:00,0.0,1.89042,0.00056,389.483,0.019,0.4987,0.0009,140.004,45.000,31807.36723,1.89992,391.851,32.625,45.056,45.000,0.00,0.12,-272.57,-272.63,-23,578,-6,23.4,13.3,-6.4,23.3,13.6,-6.1,5.73,2.55,-0.7,26.4
2013-09-30 01:00:00,0.0,1.89006,0.00056,389.559,0.030,0.4994,0.0015,139.996,45.000,31804.35327,1.89944,391.931,32.620,45.056,44.999,0.00,0.12,-272.57,-272.63,-22,578,-6,23.4,13.3,-6.3,23.3,13.6,-6.0,5.73,2.51,-0.8,26.4
2013-09-30 01:01:00,0.0,1.89011,0.00050,389.470,0.053,0.5015,0.0019,140.000,45.000,31805.93960,1.89968,391.855,32.624,45.056,45.000,0.00,0.12,-272.57,-272.63,-23,579,-6,23.4,13.3,-6.3,23.3,13.6,-6.0,5.73,2.51,-0.7,26.6
2013-09-30 01:02:00,0.0,1.89004,0.00029,389.470,0.042,0.4998,0.0018,140.005,45.000,31807.97776,1.89939,391.849,32.625,45.056,45.000,0.00,0.12,-272.57,-272.64,-23,579,-6,23.4,13.3,-6.3,23.3,13.6,-6.0,5.73,2.53,-0.7,26.8
2013-09-30 01:03:00,0.0,1.89012,0.00023,389.450,0.032,0.4978,0.0013,139.998,45.000,31807.49410,1.89951,391.821,32.637,45.056,45.000,0.00,0.12,-272.56,-272.63,-23,578,-6,23.4,13.3,-6.3,23.3,13.6,-6.1,5.73,2.56,-0.8,26.8
2013-09-30 01:04:00,0.0,1.89053,0.00037,389.532,0.022,0.4971,0.0013,140.007,45.000,31808.23977,1.89991,391.890,32.674,45.056,45.000,0.00,0.12,-272.57,-272.63,-23,578,-6,23.4,13.3,-6.4,23.4,13.6,-6.1,5.73,2.58,-0.8,26.9
2013-09-30 01:05:00,0.0,1.89030,0.00051,389.496,0.057,0.5009,0.0015,140.000,45.000,31808.98057,1.89970,391.875,32.674,45.056,45.000,0.00,0.12,-272.57,-272.64,-22,578,-6,23.4,13.3,-6.3,23.4,13.6,-6.0,5.73,2.58,-0.8,26.8
2013-09-30 01:06:00,0.0,1.89085,0.00029,389.540,0.051,0.5011,0.0012,140.001,45.000,31807.81064,1.90030,391.918,32.685,45.056,45.000,0.00,0.12,-272.57,-272.63,-23,579,-6,23.4,13.3,-6.3,23.3,13.6,-6.1,5.73,2.55,-0.8,26.8
2013-09-30 01:07:00,0.0,1.89096,0.00031,389.517,0.029,0.5006,0.0022,140.000,45.000,31806.79322,1.90040,391.901,32.688,45.056,45.000,0.00,0.12,-272.57,-272.63,-23,579,-6,23.4,13.3,-6.3,23.4,13.6,-6.0,5.73,2.51,-0.7,26.9
2013-09-30 01:08:00,0.0,1.89141,0.00026,389.541,0.029,0.5018,0.0012,139.994,45.000,31806.30569,1.90084,391.931,32.688,45.056,45.000,0.00,0.12,-272.57,-272.63,-23,578,-6,23.4,13.3,-6.3,23.4,13.6,-6.0,5.73,2.50,-0.8,26.9
2013-09-30 01:09:00,0.0,1.89185,0.00029,389.606,0.035,0.5028,0.0010,140.002,45.000,31807.39299,1.90137,391.994,32.690,45.056,45.000,0.00,0.12,-272.57,-272.64,-23,578,-6,23.4,13.3,-6.3,23.4,13.7,-6.0,5.73,2.52,-0.8,26.8
2013-09-30 01:10:00,0.0,1.89153,0.00052,389.523,0.037,0.5043,0.0016,140.004,45.000,31807.86810,1.90109,391.922,32.690,45.056,45.000,0.00,0.12,-272.56,-272.63,-23,578,-6,23.4,13.4,-6.2,23.4,13.7,-5.9,5.73,2.56,-0.8,26.8
2013-09-30 01:11:00,0.0,1.89134,0.00023,389.600,0.020,0.5025,0.0019,140.003,45.000,31805.31484,1.90080,391.989,32.690,45.056,45.000,0.00,0.12,-272.56,-272.63,-23,579,-6,23.4,13.4,-6.2,23.4,13.7,-5.9,5.73,2.59,-0.8,26.8
2013-09-30 01:12:00,0.0,1.89151,0.00021,389.526,0.033,0.5037,0.0018,140.002,45.000,31806.53075,1.90099,391.919,32.688,45.056,45.000,0.00,0.12,-272.57,-272.64,-23,579,-6,23.4,13.4,-6.3,23.3,13.7,-6.0,5.73,2.57,-0.8,26.6
2013-09-30 01:13:00,0.0,1.89150,0.00050,389.660,0.059,0.5029,0.0022,139.999,45.000,31806.88535,1.90102,392.048,32.683,45.056,45.000,0.00,0.12,-272.57,-272.63,-23,578,-6,23.4,13.3,-6.3,23.4,13.7,-6.0,5.73,2.53,-0.8,26.6
2013-09-30 01:14:00,0.0,1.89149,0.00019,389.596,0.053,0.5029,0.0027,140.006,45.000,31810.24843,1.90104,391.994,32.678,45.056,45.000,0.00,0.12,-272.57,-272.63,-22,578,-6,23.4,13.4,-6.2,23.4,13.7,-5.9,5.73,2.49,-0.8,26.4
2013-09-30 01:15:00,0.0,1.89133,0.00047,389.614,0.035,0.5038,0.0017,140.002,45.000,31809.22319,1.90090,392.011,32.649,45.057,45.000,0.00,0.12,-272.57,-272.64,-23,579,-6,23.4,13.4,-6.2,23.4,13.7,-5.9,5.73,2.52,-0.8,26.4
2013-09-30 01:16:00,0.0,1.89150,0.00024,389.553,0.025,0.5028,0.0014,140.002,45.000,31806.03632,1.90093,391.943,32.631,45.057,45.000,0.00,0.12,-272.57,-272.63,-23,579,-6,23.4,13.4,-6.2,23.4,13.7,-5.9,5.73,2.59,-0.8,26.2
2013-09-30 01:17:00,0.0,1.89137,0.00048,389.565,0.037,0.5037,0.0018,140.001,45.000,31804.55738,1.90091,391.960,32.625,45.057,45.000,0.00,0.12,-272.57,-272.63,-23,578,-6,23.4,13.4,-6.2,23.4,13.7,-5.9,5.73,2.60,-0.8,26.2
2013-09-30 01:18:00,0.0,1.89060,0.00039,389.546,0.032,0.5051,0.0012,139.994,45.000,31804.73734,1.90020,391.952,32.609,45.057,45.000,0.00,0.12,-272.57,-272.63,-22,578,-6,23.4,13.4,-6.2,23.3,13.8,-5.9,5.73,2.53,-0.8,26.2
2013-09-30 01:19:00,0.0,1.89120,0.00024,389.615,0.037,0.5051,0.0010,140.001,45.000,31807.99333,1.90072,392.011,32.576,45.057,45.000,0.00,0.12,-272.57,-272.64,-23,579,-6,23.3,13.4,-6.2,23.3,13.8,-5.9,5.73,2.49,-0.8,26.3
2013-09-30 01:20:00,0.0,1.89097,0.00045,389.598,0.050,0.5049,0.0024,139.998,45.000,31805.03950,1.90052,392.006,32.563,45.057,45.001,0.00,0.12,-272.57,-272.63,-23,579,-6,23.3,13.4,-6.2,23.3,13.8,-5.9,5.73,2.52,-0.8,26.2
2013-09-30 01:21:00,0.0,1.89065,0.00029,389.556,0.014,0.5074,0.0012,140.001,45.000,31805.06539,1.90023,391.967,32.563,45.057,45.001,0.00,0.12,-272.57,-272.63,-23,578,-6,23.3,13.4,-6.2,23.3,13.8,-5.9,5.73,2.59,-0.8,26.2
2013-09-30 01:22:00,0.0,1.89091,0.00044,389.574,0.023,0.5057,0.0016,140.000,45.000,31802.96124,1.90047,391.982,32.557,45.057,45.000,0.00,0.12,-272.57,-272.63,-22,578,-6,23.3,13.4,-6.2,23.3,13.7,-5.9,5.73,2.59,-0.8,26.3
2013-09-30 01:23:00,0.0,1.89083,0.00037,389.620,0.029,0.5048,0.0013,140.005,45.000,31802.24546,1.90034,392.016,32.550,45.057,45.000,0.00,0.12,-272.57,-272.63,-23,579,-6,23.3,13.4,-6.2,23.3,13.7,-5.9,5.73,2.54,-0.8,26.5
2013-09-30 01:24:00,0.0,1.89126,0.00020,389.645,0.030,0.5049,0.0016,139.997,45.000,31801.42793,1.90080,392.045,32.511,45.057,45.000,0.00,0.12,-272.56,-272.63,-23,579,-6,23.3,13.5,-6.2,23.3,13.8,-5.9,5.73,2.49,-0.8,26.5
2013-09-30 01:25:00,0.0,1.89174,0.00043,389.721,0.045,0.5025,0.0024,140.008,45.000,31806.37820,1.90118,392.114,32.500,45.057,45.000,0.00,0.12,-272.57,-272.64,-23,578,-6,23.3,13.4,-6.3,23.3,13.7,-5.9,5.73,2.51,-0.8,26.4
2013-09-30 01:26:00,0.0,1.89183,0.00038,389.731,0.041,0.5015,0.0014,140.004,45.000,31804.09959,1.90124,392.111,32.508,45.057,45.000,0.00,0.12,-272.57,-272.64,-22,578,-6,23.3,13.3,-6.3,23.3,13.6,-6.0,5.73,2.57,-0.8,26.7
2013-09-30 01:27:00,0.0,1.89231,0.00051,389.701,0.024,0.5002,0.0019,139.996,45.000,31800.68006,1.90181,392.088,32.533,45.056,45.000,0.00,0.12,-272.57,-272.63,-23,579,-6,23.3,13.3,-6.3,23.3,13.6,-6.0,5.73,2.59,-0.8,26.6
2013-09-30 01:28:00,0.0,1.89174,0.00031,389.494,0.039,0.5011,0.0013,140.003,45.000,31802.07544,1.90121,391.890,32.559,45.056,45.000,0.00,0.12,-272.57,-272.64,-23,579,-6,23.3,13.3,-6.3,23.3,13.6,-6.0,5.73,2.57,-0.8,26.8
2013-09-30 01:29:00,0.0,1.89162,0.00034,389.404,0.067,0.5000,0.0028,139.997,45.000,31802.13716,1.90111,391.786,32.565,45.056,45.000,0.00,0.12,-272.57,-272.64,-23,578,-6,23.3,13.3,-6.3,23.3,13.6,-6.1,5.73,2.53,-0.8,26.9
2013-09-30 01:30:00,0.0,1.89176,0.00023,389.420,0.028,0.4986,0.0022,140.000,45.000,31803.22682,1.90117,391.787,32.588,45.056,45.000,0.00,0.12,-272.57,-272.63,-23,578,-6,23.3,13.2,-6.4,23.3,13.6,-6.1,5.73,2.51,-0.8,27.0
2013-09-30 01:31:00,0.0,1.89197,0.00029,389.477,0.034,0.4994,0.0018,139.998,45.000,31801.45342,1.90132,391.846,32.620,45.056,44.999,0.00,0.12,-272.57,-272.63,-22,578,-6,23.3,13.3,-6.4,23.3,13.6,-6.1,5.73,2.51,-0.8,26.9
2013-09-30 01:32:00,0.0,1.89203,0.00042,389.430,0.050,0.5041,0.0020,139.997,45.000,31799.89637,1.90163,391.831,32.630,45.056,44.999,0.00,0.12,-272.57,-272.64,-23,579,-6,23.4,13.4,-6.2,23.3,13.7,-6.0,5.73,2.53,-0.8,27.0
2013-09-30 01:33:00,0.0,1.89177,0.00051,389.458,0.041,0.5060,0.0021,140.007,45.000,31805.88297,1.90142,391.862,32.653,45.056,44.999,0.00,0.12,-272.57,-272.63,-23,579,-6,23.4,13.4,-6.2,23.3,13.8,-5.9,5.73,2.56,-0.8,27.1
2013-09-30 01:34:00,0.0,1.89172,0.00016,389.414,0.026,0.5080,0.0010,140.005,45.000,31803.84174,1.90119,391.832,32.685,45.056,44.999,0.00,0.12,-272.57,-272.63,-23,578,-6,23.4,13.5,-6.1,23.3,13.8,-5.9,5.73,2.58,-0.8,27.2
2013-09-30 01:35:00,0.0,1.89135,0.00032,389.291,0.113,0.5071,0.0017,140.001,45.000,31804.29887,1.90100,391.715,32.688,45.056,44.999,0.00,0.12,-272.57,-272.63,-23,578,-6,23.4,13.5,-6.1,23.3,13.8,-5.8,5.73,2.58,-0.8,27.3
2013-09-30 01:36:00,0.0,1.89104,0.00052,389.012,0.126,0.5094,0.0016,140.001,45.000,31802.00341,1.90072,391.452,32.694,45.056,44.999,0.00,0.12,-272.57,-272.64,-23,578,-6,23.4,13.5,-6.1,23.3,13.9,-5.8,5.73,2.56,-0.9,27.1
2013-09-30 01:37:00,0.0,1.89005,0.00043,388.669,0.050,0.5070,0.0027,140.008,45.000,31803.88712,1.89974,391.083,32.688,45.056,45.000,0.00,0.12,-272.56,-272.63,-23,579,-6,23.4,13.5,-6.1,23.3,13.8,-5.8,5.73,2.53,-0.9,27.0
2013-09-30 01:38:00,0.0,1.88969,0.00051,388.709,0.038,0.5021,0.0024,139.998,45.000,31802.41257,1.89921,391.090,32.689,45.056,45.000,0.00,0.12,-272.57,-272.64,-23,579,-6,23.4,13.3,-6.3,23.3,13.7,-6.0,5.73,2.51,-0.9,27.1
2013-09-30 01:39:00,0.0,1.88938,0.00035,388.708,0.047,0.5019,0.0025,139.999,45.000,31804.19055,1.89883,391.082,32.690,45.056,45.000,0.00,0.12,-272.57,-272.64,-23,579,-6,23.4,13.3,-6.3,23.3,13.7,-6.0,5.73,2.51,-0.9,27.1
2013-09-30 01:40:00,0.0,1.88949,0.00037,388.714,0.027,0.5051,0.0018,140.001,45.000,31806.59018,1.89905,391.114,32.702,45.056,45.000,0.00,0.12,-272.56,-272.64,-23,578,-6,23.4,13.4,-6.2,23.3,13.8,-5.9,5.73,2.54,-0.9,26.8
2013-09-30 01:41:00,0.0,1.88936,0.00035,388.664,0.053,0.5105,0.0019,139.998,45.000,31804.31810,1.89900,391.090,32.701,45.056,45.000,0.00,0.12,-272.56,-272.63,-23,578,-6,23.4,13.5,-6.1,23.3,13.9,-5.8,5.73,2.57,-0.9,26.8
2013-09-30 01:42:00,0.0,1.88904,0.00029,388.543,0.030,0.5104,0.0020,140.000,45.000,31804.48491,1.89873,390.970,32.694,45.057,45.000,0.00,0.12,-272.57,-272.63,-22,579,-6,23.4,13.6,-6.0,23.3,13.9,-5.8,5.73,2.59,-0.9,26.8
2013-09-30 01:43:00,0.0,1.88876,0.00042,388.511,0.037,0.5072,0.0023,140.003,45.000,31809.47166,1.89840,390.922,32.688,45.057,45.000,0.00,0.12,-272.57,-272.63,-23,579,-6,23.4,13.5,-6.1,23.3,13.9,-5.8,5.73,2.57,-0.9,26.7
2013-09-30 01:44:00,0.0,1.88876,0.00043,388.484,0.014,0.5023,0.0033,140.003,45.000,31809.56301,1.89814,390.868,32.689,45.056,45.000,0.00,0.12,-272.57,-272.63,-23,579,-6,23.4,13.4,-6.2,23.3,13.7,-5.9,5.73,2.54,-0.9,26.5
2013-09-30 01:45:00,0.0,1.88915,0.00039,388.509,0.033,0.5030,0.0015,140.004,45.000,31810.44682,1.89860,390.897,32.688,45.056,45.000,0.00,0.12,-272.57,-272.63,-23,578,-6,23.4,13.4,-6.3,23.3,13.7,-6.0,5.73,2.50,-0.9,26.6
2013-09-30 01:46:00,0.0,1.88952,0.00018,388.542,0.020,0.5037,0.0004,140.000,45.000,31806.32658,1.89905,390.928,32.688,45.057,45.000,0.00,0.12,-272.56,-272.63,-23,578,-6,23.4,13.3,-6.3,23.3,13.7,-6.0,5.73,2.51,-0.9,26.7